Location: Newark
(48.1236°N, 0.7169°W)
Time: 02:04:54
(UTC+00:00)

Envisat - Pass Details

Date: 28 November 2019
Orbit: 764 x 766 km, 98.1° (Epoch: 08 December)

Event Time Altitude Azimuth Distance (km) Brightness Sun altitude
Rises 16:43:30 0° 129° (SE) 3,224 6.0 -5.2°
Reaches altitude 10° 16:46:07 10° 117° (ESE) 2,302 5.1 -5.6°
Maximum altitude 16:50:14 26° 62° (ENE) 1,487 3.9 -6.2°
Drops below altitude 10° 16:54:23 10° 8° (N) 2,313 5.2 -6.9°
Sets 16:57:01 0° 356° (N) 3,244 6.0 -7.3°
